Tracking 29090 objects as of 15-Jul-2024
HD Live streaming from Space Station
objects crossing your sky now

STARLINK-3671

Track STARLINK-3671 now!
10-day predictions
STARLINK-3671 is classified as:


NORAD ID: 51972
Int'l Code: 2022-025S
Perigee: 553.6 km
Apogee: 555.1 km
Inclination: 53.1 °
Period: 95.6 minutes
Semi major axis: 6925 km
RCS: Unknown
Launch date: March 9, 2022
Source: United States (US)
Launch site: AIR FORCE EASTERN TEST RANGE (AFETR)
Your satellite tracking list
Your tracking list is empty




NASA's NSSDC Master Catalog

Two Line Element Set (TLE):
1 51972U 22025S   24196.79252191  .00001587  00000-0  12539-3 0  9997
2 51972  53.0530 217.3955 0001054  88.3857 271.7253 15.06399290130053
Source of the keplerian elements: AFSPC